When you browse on this site, cookies collect data to enhance your experience and personalize the content and advertising you see.
Visit our Privacy Policy to learn more. By continuing to use the site, you agree to this use of cookies and data.

Hourly Weather Melbourne

Today, 14 August, Friday

Time Temperature Precipitation Wind Pressure Humidity
00:00 +12°C° 0 mm 4 mps 757 mmHg 85%
01:00 +11°C° 0 mm 3 mps 757 mmHg 85%
02:00 +11°C° 0 mm 3 mps 757 mmHg 85%
03:00 +10°C° 0 mm 3 mps 757 mmHg 85%
04:00 +10°C° 0 mm 3 mps 757 mmHg 86%
05:00 +10°C° 0 mm 3 mps 757 mmHg 86%
06:00 +10°C° 0 mm 3 mps 757 mmHg 87%
07:00 +10°C° 0 mm 3 mps 757 mmHg 87%
08:00 +11°C° 0 mm 3 mps 757 mmHg 84%
09:00 +12°C° 0 mm 4 mps 758 mmHg 81%
10:00 +13°C° 0 mm 4 mps 758 mmHg 78%
11:00 +14°C° 0.2 mm 4 mps 757 mmHg 73%
12:00 +17°C° 0.2 mm 4 mps 757 mmHg 69%
13:00 +18°C° 0.2 mm 4 mps 757 mmHg 65%
14:00 +17°C° 0.4 mm 4 mps 757 mmHg 68%
15:00 +17°C° 0.4 mm 4 mps 756 mmHg 71%
16:00 +15°C° 0.4 mm 4 mps 756 mmHg 73%
17:00 +14°C° 0.4 mm 3 mps 756 mmHg 77%
18:00 +13°C° 0.4 mm 3 mps 757 mmHg 80%
19:00 +12°C° 0.4 mm 3 mps 757 mmHg 83%
20:00 +13°C° 0 mm 2 mps 757 mmHg 84%
21:00 +13°C° 0 mm 2 mps 757 mmHg 85%
22:00 +12°C° 0 mm 2 mps 757 mmHg 86%
23:00 +12°C° 0 mm 1 mps 757 mmHg 87%

Tomorrow, 15 August, Saturday

Time Temperature Precipitation Wind Pressure Humidity
00:00 +12°C° 0 mm 1 mps 757 mmHg 87%
01:00 +12°C° 0 mm 1 mps 757 mmHg 88%
02:00 +11°C° 0 mm 1 mps 757 mmHg 88%
03:00 +11°C° 0 mm 1 mps 757 mmHg 88%
04:00 +10°C° 0 mm 1 mps 756 mmHg 89%
05:00 +10°C° 0 mm 1 mps 757 mmHg 89%
06:00 +10°C° 0 mm 1 mps 757 mmHg 89%
07:00 +10°C° 0 mm 1 mps 757 mmHg 89%
08:00 +11°C° 0 mm 1 mps 757 mmHg 85%
09:00 +12°C° 0 mm 1 mps 757 mmHg 80%
10:00 +14°C° 0 mm 1 mps 757 mmHg 75%
11:00 +15°C° 0 mm 2 mps 757 mmHg 72%
12:00 +15°C° 0 mm 2 mps 757 mmHg 69%
13:00 +16°C° 0 mm 2 mps 756 mmHg 66%
14:00 +16°C° 0.1 mm 2 mps 756 mmHg 67%
15:00 +16°C° 0.1 mm 2 mps 756 mmHg 68%
16:00 +16°C° 0.1 mm 3 mps 756 mmHg 69%
17:00 +14°C° 0 mm 2 mps 756 mmHg 75%
18:00 +13°C° 0 mm 2 mps 757 mmHg 82%
19:00 +12°C° 0 mm 2 mps 757 mmHg 89%
20:00 +12°C° 0 mm 2 mps 757 mmHg 90%
21:00 +12°C° 0 mm 2 mps 757 mmHg 92%
22:00 +12°C° 0 mm 2 mps 758 mmHg 93%
23:00 +12°C° 0 mm 2 mps 758 mmHg 93%

Day after tomorrow, 16 August, Sunday

Time Temperature Precipitation Wind Pressure Humidity
00:00 +11°C° 0 mm 3 mps 757 mmHg 93%
01:00 +11°C° 0 mm 4 mps 757 mmHg 93%
02:00 +11°C° 0 mm 3 mps 757 mmHg 92%
03:00 +11°C° 0 mm 3 mps 757 mmHg 91%
04:00 +10°C° 0 mm 3 mps 757 mmHg 90%
05:00 +10°C° 0.1 mm 4 mps 757 mmHg 91%
06:00 +10°C° 0.1 mm 4 mps 757 mmHg 91%
07:00 +10°C° 0.1 mm 4 mps 757 mmHg 91%
08:00 +10°C° 0.3 mm 4 mps 758 mmHg 90%
09:00 +11°C° 0.3 mm 4 mps 758 mmHg 89%
10:00 +11°C° 0.3 mm 4 mps 758 mmHg 88%
11:00 +12°C° 0.3 mm 4 mps 757 mmHg 84%
12:00 +13°C° 0.3 mm 4 mps 757 mmHg 79%
13:00 +14°C° 0.3 mm 4 mps 756 mmHg 75%
14:00 +14°C° 0.5 mm 4 mps 756 mmHg 75%
15:00 +14°C° 0.5 mm 4 mps 756 mmHg 74%
16:00 +14°C° 0.5 mm 4 mps 756 mmHg 74%
17:00 +13°C° 0.3 mm 4 mps 756 mmHg 77%
18:00 +12°C° 0.3 mm 4 mps 756 mmHg 80%
19:00 +11°C° 0.3 mm 4 mps 757 mmHg 84%
20:00 +11°C° 0 mm 4 mps 757 mmHg 85%
21:00 +10°C° 0 mm 4 mps 757 mmHg 87%
22:00 +10°C° 0 mm 4 mps 757 mmHg 89%
23:00 +10°C° 0 mm 4 mps 757 mmHg 89%

17 August, Monday

Time Temperature Precipitation Wind Pressure Humidity
00:00 +8°C° 0 mm 4 mps 757 mmHg 89%
01:00 +8°C° 0 mm 4 mps 757 mmHg 90%
02:00 +9°C° 0 mm 3 mps 757 mmHg 90%
03:00 +9°C° 0 mm 3 mps 757 mmHg 90%
04:00 +8°C° 0 mm 3 mps 757 mmHg 90%
05:00 +8°C° 0 mm 3 mps 757 mmHg 90%
06:00 +8°C° 0 mm 3 mps 757 mmHg 89%
07:00 +8°C° 0 mm 3 mps 757 mmHg 89%
08:00 +9°C° 0 mm 3 mps 757 mmHg 83%
09:00 +10°C° 0 mm 2 mps 757 mmHg 77%
10:00 +12°C° 0 mm 2 mps 758 mmHg 71%
11:00 +14°C° 0 mm 2 mps 757 mmHg 63%
12:00 +15°C° 0 mm 2 mps 756 mmHg 55%
13:00 +16°C° 0 mm 2 mps 756 mmHg 47%
14:00 +16°C° 0 mm 2 mps 756 mmHg 48%
15:00 +16°C° 0 mm 2 mps 755 mmHg 49%
16:00 +16°C° 0 mm 2 mps 755 mmHg 50%
17:00 +15°C° 0 mm 2 mps 755 mmHg 55%
18:00 +13°C° 0 mm 3 mps 755 mmHg 60%
19:00 +12°C° 0 mm 3 mps 755 mmHg 65%
20:00 +11°C° 0 mm 3 mps 755 mmHg 67%
21:00 +11°C° 0 mm 4 mps 755 mmHg 69%
22:00 +11°C° 0 mm 4 mps 755 mmHg 71%
23:00 +11°C° 0 mm 4 mps 754 mmHg 73%

18 August, Tuesday

Time Temperature Precipitation Wind Pressure Humidity
00:00 +11°C° 0 mm 4 mps 754 mmHg 75%
01:00 +10°C° 0 mm 5 mps 753 mmHg 77%
02:00 +10°C° 0 mm 5 mps 752 mmHg 78%
03:00 +9°C° 0 mm 5 mps 752 mmHg 80%
04:00 +9°C° 0 mm 5 mps 751 mmHg 81%
05:00 +9°C° 0 mm 5 mps 751 mmHg 83%
06:00 +9°C° 0 mm 5 mps 751 mmHg 84%
07:00 +9°C° 0 mm 5 mps 751 mmHg 86%
08:00 +10°C° 0 mm 5 mps 751 mmHg 79%
09:00 +12°C° 0 mm 5 mps 751 mmHg 72%
10:00 +14°C° 0 mm 5 mps 751 mmHg 66%
11:00 +14°C° 0.1 mm 5 mps 750 mmHg 63%
12:00 +15°C° 0.1 mm 6 mps 750 mmHg 60%
13:00 +15°C° 0.1 mm 6 mps 749 mmHg 57%
14:00 +15°C° 0.2 mm 6 mps 749 mmHg 60%
15:00 +14°C° 0.2 mm 5 mps 749 mmHg 64%
16:00 +13°C° 0.2 mm 4 mps 749 mmHg 67%
17:00 +12°C° 0.1 mm 3 mps 749 mmHg 70%
18:00 +11°C° 0.1 mm 3 mps 749 mmHg 73%
19:00 +10°C° 0.1 mm 2 mps 750 mmHg 77%
20:00 +10°C° 0.1 mm 2 mps 750 mmHg 78%
21:00 +10°C° 0.1 mm 2 mps 750 mmHg 80%
22:00 +10°C° 0.1 mm 2 mps 750 mmHg 81%
23:00 +10°C° 0.1 mm 2 mps 749 mmHg 82%

19 August, Wednesday

Time Temperature Precipitation Wind Pressure Humidity
00:00 +9°C° 0.1 mm 3 mps 749 mmHg 83%
01:00 +9°C° 0.1 mm 3 mps 748 mmHg 84%
02:00 +9°C° 0.8 mm 3 mps 747 mmHg 84%
03:00 +9°C° 0.8 mm 3 mps 747 mmHg 85%
04:00 +9°C° 0.8 mm 3 mps 746 mmHg 86%
05:00 +9°C° 0.1 mm 3 mps 746 mmHg 85%
06:00 +9°C° 0.1 mm 3 mps 746 mmHg 85%
07:00 +9°C° 0.1 mm 3 mps 746 mmHg 85%
08:00 +10°C° 0.1 mm 4 mps 746 mmHg 83%
09:00 +10°C° 0.1 mm 4 mps 745 mmHg 80%
10:00 +11°C° 0.1 mm 4 mps 745 mmHg 78%
11:00 +11°C° 0.1 mm 4 mps 745 mmHg 77%
12:00 +11°C° 0.1 mm 4 mps 744 mmHg 75%
13:00 +11°C° 0.1 mm 4 mps 744 mmHg 73%
14:00 +11°C° 0.1 mm 4 mps 743 mmHg 73%
15:00 +11°C° 0.1 mm 4 mps 743 mmHg 73%
16:00 +11°C° 0.1 mm 3 mps 743 mmHg 73%
17:00 +11°C° 0 mm 3 mps 743 mmHg 76%
18:00 +10°C° 0 mm 3 mps 743 mmHg 79%
19:00 +9°C° 0 mm 3 mps 744 mmHg 83%
20:00 +9°C° 0.3 mm 3 mps 744 mmHg 84%
21:00 +8°C° 0.3 mm 4 mps 744 mmHg 85%
22:00 +8°C° 0.3 mm 4 mps 745 mmHg 86%
23:00 +8°C° 0.4 mm 4 mps 745 mmHg 84%
Show more